Voltar ao catálogo

ONEWEB-0083

AtivoComunicaçõesPO
NORAD 45435·PAYLOAD·🇬🇧 United Kingdom

Lançado Mar 21, 2020 de Baikonur Cosmodrome

Loading…

Próximas Passagens (próximas 24 horas)

TLE

AtualizadoSource: CelesTrak SupGP

Época: Sep 14, 2026, 21:04 UTC

1 45435C 20020M   26257.87791667 -.00002352  00000+0 -66456-2 0  2577
2 45435  87.8973   3.2344 0001774 100.7316   0.0857 13.11416208    16

Acompanhe ONEWEB-0083 em tempo real com AllMySat

Download on the App Store